W9IF-4 Weather Reports


Display with metric or nautical units.
time (UTC)temp
F
wind
direction
speed
MPH
gust
MPH
rain 1hr
in
rain 24hr
in
rain mn
in
humidity
%
barometer
mb
20180225095535 46 138 6.0 0.0 0.00 0.00 0.00 1029.7
20180225095435 46 359 4.0 0.0 0.00 0.00 0.00 1029.7
20180225095335 46 136 4.0 0.0 0.00 0.00 0.00 1029.8
20180225095235 46 143 9.0 0.0 0.00 0.00 0.00 1029.8
20180225095135 46 132 7.0 0.0 0.00 0.00 0.00 1029.8
20180225095035 46 359 1.0 0.0 0.00 0.00 0.00 1029.8
20180225094935 46 359 3.0 0.0 0.00 0.00 0.00 1029.8
20180225094835 46 359 10.0 0.0 0.00 0.00 0.00 1029.8
20180225094735 45 124 3.0 0.0 0.00 0.00 0.00 1029.8
20180225094635 45 359 8.0 0.0 0.00 0.00 0.00 1029.8
20180225094535 46 359 4.0 0.0 0.00 0.00 0.00 1029.8
20180225094435 45 359 7.0 0.0 0.00 0.00 0.00 1029.8
20180225094335 46 359 9.0 0.0 0.00 0.00 0.00 1029.8
20180225094235 46 135 9.0 0.0 0.00 0.00 0.00 1029.8
20180225094136 45 359 8.0 0.0 0.00 0.00 0.00 1029.8
20180225094036 45 134 3.0 0.0 0.00 0.00 0.00 1029.8
20180225093936 45 141 10.0 0.0 0.00 0.00 0.00 1029.8
20180225093835 46 359 6.0 0.0 0.00 0.00 0.00 1029.7
20180225093735 45 359 5.0 0.0 0.00 0.00 0.00 1029.8
20180225093635 45 134 8.0 0.0 0.00 0.00 0.00 1029.8
20180225093535 46 359 9.0 0.0 0.00 0.00 0.00 1029.8
20180225093335 46 136 8.0 0.0 0.00 0.00 0.00 1029.9
20180225093235 46 359 9.0 0.0 0.00 0.00 0.00 1029.9
20180225093135 46 128 8.0 0.0 0.00 0.00 0.00 1029.9
20180225093035 46 162 6.0 0.0 0.00 0.00 0.00 1029.9
20180225092935 46 359 3.0 0.0 0.00 0.00 0.00 1029.9
20180225092835 46 359 9.0 0.0 0.00 0.00 0.00 1030.0
20180225092736 46 141 7.0 0.0 0.00 0.00 0.00 1030.0
20180225092635 46 113 10.0 0.0 0.00 0.00 0.00 1029.9
20180225092535 46 359 8.0 0.0 0.00 0.00 0.00 1030.0
20180225092435 46 132 9.0 0.0 0.00 0.00 0.00 1029.9
20180225092335 46 359 10.0 0.0 0.00 0.00 0.00 1029.9
20180225092235 46 128 8.0 0.0 0.00 0.00 0.00 1029.9
20180225092135 46 128 5.0 0.0 0.00 0.00 0.00 1029.9
20180225092035 46 359 9.0 0.0 0.00 0.00 0.00 1029.9
20180225091947 46 359 7.0 0.0 0.00 0.00 0.00 1029.9
20180225091735 46 136 9.0 0.0 0.00 0.00 0.00 1029.9
20180225091634 46 359 7.0 0.0 0.00 0.00 0.00 1029.9
20180225091535 46 359 9.0 0.0 0.00 0.00 0.00 1029.9
20180225091435 46 359 7.0 0.0 0.00 0.00 0.00 1029.9
20180225091335 46 165 9.0 0.0 0.00 0.00 0.00 1029.9
20180225091235 46 134 10.0 0.0 0.00 0.00 0.00 1029.9
20180225091135 46 128 10.0 0.0 0.00 0.00 0.00 1029.9
20180225091035 46 359 5.0 0.0 0.00 0.00 0.00 1029.9
20180225090935 46 122 7.0 0.0 0.00 0.00 0.00 1029.9
20180225090835 46 359 9.0 0.0 0.00 0.00 0.00 1029.9
20180225090735 46 114 8.0 0.0 0.00 0.00 0.00 1029.8
20180225090635 46 155 10.0 0.0 0.00 0.00 0.00 1029.8
20180225090535 46 132 9.0 0.0 0.00 0.00 0.00 1029.8
20180225090435 46 359 12.0 0.0 0.00 0.00 0.00 1029.8
20180225090335 46 359 8.0 0.0 0.00 0.00 0.00 1029.8
20180225090235 47 359 8.0 0.0 0.00 0.00 0.00 1029.8
20180225090134 47 359 7.0 0.0 0.00 0.00 0.00 1029.8
20180225090035 47 359 9.0 0.0 0.00 0.00 0.00 1029.8
20180225085935 47 359 3.0 0.0 0.00 0.00 0.00 1029.9
20180225085835 47 142 9.0 0.0 0.00 0.00 0.00 1029.8
20180225085735 47 135 10.0 0.0 0.00 0.00 0.00 1029.9
20180225085635 46 359 11.0 0.0 0.00 0.00 0.00 1029.8
20180225085535 46 105 11.0 0.0 0.00 0.00 0.00 1029.8
20180225085435 46 165 5.0 0.0 0.00 0.00 0.00 1029.8
20180225085335 46 121 10.0 0.0 0.00 0.00 0.00 1029.8
20180225085235 46 359 9.0 0.0 0.00 0.00 0.00 1029.7
20180225085135 47 359 10.0 0.0 0.00 0.00 0.00 1029.7
20180225085035 46 128 5.0 0.0 0.00 0.00 0.00 1029.8
20180225084935 46 359 8.0 0.0 0.00 0.00 0.00 1029.8
20180225084835 46 359 10.0 0.0 0.00 0.00 0.00 1029.8
20180225084735 46 149 8.0 0.0 0.00 0.00 0.00 1029.8
20180225084635 46 359 8.0 0.0 0.00 0.00 0.00 1029.8
20180225084535 46 359 5.0 0.0 0.00 0.00 0.00 1029.7
20180225084435 46 125 4.0 0.0 0.00 0.00 0.00 1029.8
20180225084335 46 359 8.0 0.0 0.00 0.00 0.00 1029.7
20180225084235 46 142 10.0 0.0 0.00 0.00 0.00 1029.8
20180225084134 46 156 9.0 0.0 0.00 0.00 0.00 1029.7
20180225084034 46 359 8.0 0.0 0.00 0.00 0.00 1029.7
20180225083935 46 359 9.0 0.0 0.00 0.00 0.00 1029.7
20180225083834 47 156 9.0 0.0 0.00 0.00 0.00 1029.7
20180225083735 47 359 7.0 0.0 0.00 0.00 0.00 1029.7
20180225083634 47 152 9.0 0.0 0.00 0.00 0.00 1029.8
20180225083535 47 359 11.0 0.0 0.00 0.00 0.00 1029.8
20180225083435 47 359 11.0 0.0 0.00 0.00 0.00 1029.8
20180225083335 47 115 10.0 0.0 0.00 0.00 0.00 1029.8
20180225083235 47 110 12.0 0.0 0.00 0.00 0.00 1029.8
20180225083134 47 121 10.0 0.0 0.00 0.00 0.00 1029.8
20180225083034 47 135 10.0 0.0 0.00 0.00 0.00 1029.8
20180225082934 47 162 11.0 0.0 0.00 0.00 0.00 1029.8
20180225082834 47 129 8.0 0.0 0.00 0.00 0.00 1029.8
20180225082735 47 165 10.0 0.0 0.00 0.00 0.00 1029.8
20180225082635 47 138 10.0 0.0 0.00 0.00 0.00 1029.9
20180225082534 47 359 10.0 0.0 0.00 0.00 0.00 1029.9
20180225082435 47 150 9.0 0.0 0.00 0.00 0.00 1029.8
20180225082410 47 152 9.0 0.0 0.00 0.00 0.00 1029.8
20180225082236 47 150 9.0 0.0 0.00 0.00 0.00 1029.9
20180225082135 47 146 9.0 0.0 0.00 0.00 0.00 1029.8
20180225082034 47 359 9.0 0.0 0.00 0.00 0.00 1029.8
20180225081935 47 359 7.0 0.0 0.00 0.00 0.00 1029.8
20180225081834 47 165 8.0 0.0 0.00 0.00 0.00 1029.7
20180225081735 47 145 7.0 0.0 0.00 0.00 0.00 1029.7
20180225081635 47 170 7.0 0.0 0.00 0.00 0.00 1029.7
20180225081534 47 359 7.0 0.0 0.00 0.00 0.00 1029.6
20180225081435 47 135 3.0 0.0 0.00 0.00 0.00 1029.6
20180225081335 47 138 7.0 0.0 0.00 0.00 0.00 1029.6
20180225081234 47 359 5.0 0.0 0.00 0.00 0.00 1029.6
20180225081135 47 359 7.0 0.0 0.00 0.00 0.00 1029.7
20180225081035 47 359 4.0 0.0 0.00 0.00 0.00 1029.7
20180225080935 47 359 3.0 0.0 0.00 0.00 0.00 1029.8
20180225080835 47 162 10.0 0.0 0.00 0.00 0.00 1029.8
20180225080735 47 134 10.0 0.0 0.00 0.00 0.00 1029.8
20180225080635 47 128 9.0 0.0 0.00 0.00 0.00 1029.8
20180225080534 47 142 8.0 0.0 0.00 0.00 0.00 1029.9
20180225080434 47 145 9.0 0.0 0.00 0.00 0.00 1029.8
20180225080334 47 139 11.0 0.0 0.00 0.00 0.00 1029.9
20180225080234 47 132 9.0 0.0 0.00 0.00 0.00 1029.8
20180225080135 47 156 11.0 0.0 0.00 0.00 0.00 1029.8
20180225080035 47 156 10.0 0.0 0.00 0.00 0.00 1029.8
20180225075934 47 163 10.0 0.0 0.00 0.00 0.00 1029.9
20180225075835 47 359 9.0 0.0 0.00 0.00 0.00 1029.8
20180225075735 47 170 7.0 0.0 0.00 0.00 0.00 1029.8
20180225075634 47 359 7.0 0.0 0.00 0.00 0.00 1029.8
20180225075534 47 159 7.0 0.0 0.00 0.00 0.00 1029.8
20180225075434 47 184 8.0 0.0 0.00 0.00 0.00 1029.8
20180225075334 47 136 6.0 0.0 0.00 0.00 0.00 1029.8
20180225075235 47 162 5.0 0.0 0.00 0.00 0.00 1029.9
20180225075135 47 167 9.0 0.0 0.00 0.00 0.00 1029.9
20180225075035 47 149 9.0 0.0 0.00 0.00 0.00 1029.9
20180225074934 47 359 6.0 0.0 0.00 0.00 0.00 1029.9
20180225074835 47 169 9.0 0.0 0.00 0.00 0.00 1029.9
20180225074734 47 152 8.0 0.0 0.00 0.00 0.00 1029.9
20180225074634 47 359 9.0 0.0 0.00 0.00 0.00 1029.9
20180225074435 47 145 10.0 0.0 0.00 0.00 0.00 1030.0
20180225074334 47 117 6.0 0.0 0.00 0.00 0.00 1030.0
20180225074235 47 159 8.0 0.0 0.00 0.00 0.00 1030.0
20180225074134 47 166 7.0 0.0 0.00 0.00 0.00 1030.0
20180225074034 47 134 7.0 0.0 0.00 0.00 0.00 1030.0
20180225073934 47 114 7.0 0.0 0.00 0.00 0.00 1030.0
20180225073835 47 125 8.0 0.0 0.00 0.00 0.00 1030.0
20180225073734 48 142 9.0 0.0 0.00 0.00 0.00 1030.0
20180225073634 48 127 8.0 0.0 0.00 0.00 0.00 1030.0
20180225073534 48 146 8.0 0.0 0.00 0.00 0.00 1030.0
20180225073434 48 135 7.0 0.0 0.00 0.00 0.00 1030.0
20180225073334 48 139 8.0 0.0 0.00 0.00 0.00 1030.0
20180225073234 48 143 9.0 0.0 0.00 0.00 0.00 1030.0
20180225073135 48 138 7.0 0.0 0.00 0.00 0.00 1030.0
20180225072934 48 177 8.0 0.0 0.00 0.00 0.00 1030.1
20180225072835 49 131 8.0 0.0 0.00 0.00 0.00 1030.1
20180225072735 49 115 7.0 0.0 0.00 0.00 0.00 1030.0
20180225072638 49 115 7.0 0.0 0.00 0.00 0.00 1030.0
20180225072535 49 129 8.0 0.0 0.00 0.00 0.00 1030.1
20180225072434 49 150 6.0 0.0 0.00 0.00 0.00 1030.0
20180225072334 49 177 7.0 0.0 0.00 0.00 0.00 1030.0
20180225072234 49 172 7.0 0.0 0.00 0.00 0.00 1030.0
20180225072134 49 163 6.0 0.0 0.00 0.00 0.00 1030.0
20180225072034 49 141 6.0 0.0 0.00 0.00 0.00 1030.0
20180225071835 49 141 6.0 0.0 0.00 0.00 0.00 1030.0
20180225071735 49 177 8.0 0.0 0.00 0.00 0.00 1030.0
20180225071634 48 174 6.0 0.0 0.00 0.00 0.00 1030.1
20180225071535 49 359 3.0 0.0 0.00 0.00 0.00 1030.1
20180225071434 48 359 5.0 0.0 0.00 0.00 0.00 1030.1
20180225071334 48 179 5.0 0.0 0.00 0.00 0.00 1030.1
20180225071234 48 359 3.0 0.0 0.00 0.00 0.00 1030.1
20180225071135 48 159 8.0 0.0 0.00 0.00 0.00 1030.1
20180225071034 48 359 4.0 0.0 0.00 0.00 0.00 1030.1
20180225070934 48 148 8.0 0.0 0.00 0.00 0.00 1030.1
20180225070834 48 181 9.0 0.0 0.00 0.00 0.00 1030.0
20180225070734 48 176 8.0 0.0 0.00 0.00 0.00 1030.1
20180225070634 48 187 9.0 0.0 0.00 0.00 0.00 1030.1
20180225070534 48 359 4.0 0.0 0.00 0.00 0.00 1030.1
20180225070434 48 156 7.0 0.0 0.00 0.00 0.00 1030.1
20180225070334 48 195 8.0 0.0 0.00 0.00 0.00 1030.1
20180225070234 48 359 6.0 0.0 0.00 0.00 0.00 1030.1
20180225070134 49 165 7.0 0.0 0.00 0.00 0.00 1030.1
20180225070034 49 166 8.0 0.0 0.00 0.00 0.00 1030.2
20180225065934 49 359 6.0 0.0 0.00 0.00 0.00 1030.2
20180225065834 49 124 5.0 0.0 0.00 0.00 0.00 1030.2
20180225065735 49 183 9.0 0.0 0.00 0.00 0.00 1030.2
20180225065535 49 191 6.0 0.0 0.00 0.00 0.00 1030.2
20180225065435 48 174 8.0 0.0 0.00 0.00 0.00 1030.2
20180225065335 49 166 9.0 0.0 0.00 0.00 0.00 1030.2
20180225065234 49 131 8.0 0.0 0.00 0.00 0.00 1030.2
20180225065135 48 155 7.0 0.0 0.00 0.00 0.00 1030.2
20180225065034 49 158 7.0 0.0 0.00 0.00 0.00 1030.2
20180225064934 49 166 8.0 0.0 0.00 0.00 0.00 1030.2
20180225064834 49 165 7.0 0.0 0.00 0.00 0.00 1030.2
20180225064734 49 149 7.0 0.0 0.00 0.00 0.00 1030.2
20180225064634 49 135 7.0 0.0 0.00 0.00 0.00 1030.2
20180225064534 49 143 8.0 0.0 0.00 0.00 0.00 1030.3
20180225064434 49 176 8.0 0.0 0.00 0.00 0.00 1030.2
20180225064334 49 200 7.0 0.0 0.00 0.00 0.00 1030.3
20180225064234 49 166 7.0 0.0 0.00 0.00 0.00 1030.3
20180225064134 49 152 7.0 0.0 0.00 0.00 0.00 1030.3
20180225064034 49 152 6.0 0.0 0.00 0.00 0.00 1030.3
20180225063934 49 162 7.0 0.0 0.00 0.00 0.00 1030.4
20180225063834 49 143 6.0 0.0 0.00 0.00 0.00 1030.3
20180225063734 49 124 7.0 0.0 0.00 0.00 0.00 1030.3
20180225063634 49 150 6.0 0.0 0.00 0.00 0.00 1030.4
20180225063534 49 127 8.0 0.0 0.00 0.00 0.00 1030.4
20180225063434 49 148 7.0 0.0 0.00 0.00 0.00 1030.4
20180225063334 49 155 7.0 0.0 0.00 0.00 0.00 1030.5
20180225063234 49 115 8.0 0.0 0.00 0.00 0.00 1030.5
20180225063134 49 142 7.0 0.0 0.00 0.00 0.00 1030.5
20180225063034 49 160 6.0 0.0 0.00 0.00 0.00 1030.5
20180225062934 49 179 6.0 0.0 0.00 0.00 0.00 1030.6
20180225062834 49 124 7.0 0.0 0.00 0.00 0.00 1030.5
20180225062735 49 127 7.0 0.0 0.00 0.00 0.00 1030.6
20180225062634 49 141 7.0 0.0 0.00 0.00 0.00 1030.6
20180225062534 49 128 7.0 0.0 0.00 0.00 0.00 1030.6
20180225062434 49 125 8.0 0.0 0.00 0.00 0.00 1030.6
20180225062334 49 139 7.0 0.0 0.00 0.00 0.00 1030.6
20180225062234 49 138 7.0 0.0 0.00 0.00 0.00 1030.6
20180225062134 49 127 6.0 0.0 0.00 0.00 0.00 1030.6
20180225062034 49 155 7.0 0.0 0.00 0.00 0.00 1030.6
20180225061934 49 167 7.0 0.0 0.00 0.00 0.00 1030.6
20180225061834 49 141 7.0 0.0 0.00 0.00 0.00 1030.6
20180225061734 49 139 7.0 0.0 0.00 0.00 0.00 1030.6
20180225061634 49 129 7.0 0.0 0.00 0.00 0.00 1030.6
20180225061534 49 146 6.0 0.0 0.00 0.00 0.00 1030.6
20180225061434 49 114 6.0 0.0 0.00 0.00 0.00 1030.6
20180225061334 49 167 7.0 0.0 0.00 0.00 0.00 1030.6
20180225061234 49 124 6.0 0.0 0.00 0.00 0.00 1030.6
20180225061134 49 139 7.0 0.0 0.00 0.00 0.00 1030.6
20180225061034 49 124 8.0 0.0 0.00 0.00 0.00 1030.7
20180225060934 49 149 6.0 0.0 0.00 0.00 0.00 1030.7
20180225060834 49 129 8.0 0.0 0.00 0.00 0.00 1030.7
20180225060734 49 131 8.0 0.0 0.00 0.00 0.00 1030.7
20180225060634 49 142 8.0 0.0 0.00 0.00 0.00 1030.8
20180225060534 49 121 7.0 0.0 0.00 0.00 0.00 1030.8
20180225060434 49 128 8.0 0.0 0.00 0.00 0.00 1030.8
20180225060334 49 128 9.0 0.0 0.00 0.00 0.00 1030.8
20180225060234 49 132 9.0 0.0 0.00 0.00 0.00 1030.8
20180225060134 49 110 7.0 0.0 0.00 0.00 0.00 1030.8
20180225060034 49 134 7.0 0.0 0.00 0.00 0.00 1030.8
20180225055934 49 129 8.0 0.0 0.00 0.00 0.00 1030.9
20180225055834 49 125 8.0 0.0 0.00 0.00 0.00 1030.8
20180225055735 49 138 7.0 0.0 0.00 0.00 0.00 1030.8
20180225055634 49 120 7.0 0.0 0.00 0.00 0.00 1030.8